Time,TemperatureF,DewpointF,PressureIn,WindDirection,WindDirectionDegrees,WindSpeedMPH,WindSpeedGustMPH,Humidity,HourlyPrecipIn,Conditions,Clouds,dailyrainin,SolarRadiationWatts/m^2,SoftwareType,DateUTC
2013-07-17 00:00:00,0.0,0.0,30.01,North,0,0.0,0.0,0,0.00,,,0.00,0.00,VWS V14.00,2013-07-17 05:00:00,
2013-07-17 00:15:00,0.0,0.0,30.01,North,0,0.0,0.0,0,0.00,,,0.00,0.00,VWS V14.00,2013-07-17 05:15:00,
2013-07-17 00:30:00,0.0,0.0,30.01,North,0,0.0,0.0,0,0.00,,,0.00,0.00,VWS V14.00,2013-07-17 05:30:00,
2013-07-17 00:45:00,0.0,0.0,30.00,North,0,0.0,0.0,0,0.00,,,0.00,0.00,VWS V14.00,2013-07-17 05:45:00,
2013-07-17 01:00:00,0.0,0.0,30.01,North,0,0.0,0.0,0,0.00,,,0.00,0.00,VWS V14.00,2013-07-17 06:00:00,
2013-07-17 01:15:00,0.0,0.0,30.01,North,0,0.0,0.0,0,0.00,,,0.00,0.00,VWS V14.00,2013-07-17 06:15:00,
2013-07-17 01:30:00,0.0,0.0,30.01,North,0,0.0,0.0,0,0.00,,,0.00,0.00,VWS V14.00,2013-07-17 06:30:00,
2013-07-17 01:45:00,0.0,0.0,30.01,North,0,0.0,0.0,0,0.00,,,0.00,0.00,VWS V14.00,2013-07-17 06:45:00,
2013-07-17 02:00:00,0.0,0.0,30.01,North,0,0.0,0.0,0,0.00,,,0.00,0.00,VWS V14.00,2013-07-17 07:00:00,
2013-07-17 02:15:00,0.0,0.0,30.01,North,0,0.0,0.0,0,0.00,,,0.00,0.00,VWS V14.00,2013-07-17 07:15:00,
2013-07-17 02:30:00,0.0,0.0,30.01,North,0,0.0,0.0,0,0.00,,,0.00,0.00,VWS V14.00,2013-07-17 07:30:00,
2013-07-17 02:45:00,0.0,0.0,30.01,North,0,0.0,0.0,0,0.00,,,0.00,0.00,VWS V14.00,2013-07-17 07:45:00,
2013-07-17 03:00:00,0.0,0.0,30.01,North,0,0.0,0.0,0,0.00,,,0.00,0.00,VWS V14.00,2013-07-17 08:00:00,
2013-07-17 03:15:00,0.0,0.0,30.01,North,0,0.0,0.0,0,0.00,,,0.00,0.00,VWS V14.00,2013-07-17 08:15:00,
2013-07-17 03:30:00,0.0,0.0,30.01,North,0,0.0,0.0,0,0.00,,,0.00,0.00,VWS V14.00,2013-07-17 08:30:00,
2013-07-17 03:45:00,0.0,0.0,30.01,North,0,0.0,0.0,0,0.00,,,0.00,0.00,VWS V14.00,2013-07-17 08:45:00,
2013-07-17 04:00:00,0.0,0.0,30.01,North,0,0.0,0.0,0,0.00,,,0.00,0.00,VWS V14.00,2013-07-17 09:00:00,
2013-07-17 04:15:00,0.0,0.0,30.01,North,0,0.0,0.0,0,0.00,,,0.00,0.00,VWS V14.00,2013-07-17 09:15:00,
2013-07-17 04:30:00,0.0,0.0,30.01,North,0,0.0,0.0,0,0.00,,,0.00,0.00,VWS V14.00,2013-07-17 09:30:00,
2013-07-17 04:45:00,0.0,0.0,30.00,North,0,0.0,0.0,0,0.00,,,0.00,0.00,VWS V14.00,2013-07-17 09:45:00,
2013-07-17 05:00:00,0.0,0.0,30.01,North,0,0.0,0.0,0,0.00,,,0.00,0.00,VWS V14.00,2013-07-17 10:00:00,
2013-07-17 05:15:00,0.0,0.0,30.01,North,0,0.0,0.0,0,0.00,,,0.00,0.00,VWS V14.00,2013-07-17 10:15:00,
2013-07-17 05:30:00,0.0,0.0,30.01,North,0,0.0,0.0,0,0.00,,,0.00,0.00,VWS V14.00,2013-07-17 10:30:00,
2013-07-17 05:45:00,0.0,0.0,30.01,North,0,0.0,0.0,0,0.00,,,0.00,0.00,VWS V14.00,2013-07-17 10:45:00,
2013-07-17 06:00:00,0.0,0.0,30.01,North,0,0.0,0.0,0,0.00,,,0.00,0.00,VWS V14.00,2013-07-17 11:00:00,
2013-07-17 06:15:00,0.0,0.0,30.02,North,0,0.0,0.0,0,0.00,,,0.00,0.00,VWS V14.00,2013-07-17 11:15:00,
2013-07-17 06:30:00,0.0,0.0,30.03,North,0,0.0,0.0,0,0.00,,,0.00,0.00,VWS V14.00,2013-07-17 11:30:00,
2013-07-17 06:45:00,0.0,0.0,30.03,North,0,0.0,0.0,0,0.00,,,0.00,0.00,VWS V14.00,2013-07-17 11:45:00,
2013-07-17 07:00:00,0.0,0.0,30.03,North,0,0.0,0.0,0,0.00,,,0.00,0.00,VWS V14.00,2013-07-17 12:00:00,
2013-07-17 07:15:00,0.0,0.0,30.03,North,0,0.0,0.0,0,0.00,,,0.00,0.00,VWS V14.00,2013-07-17 12:15:00,
2013-07-17 07:30:00,0.0,0.0,30.03,North,0,0.0,0.0,0,0.00,,,0.00,0.00,VWS V14.00,2013-07-17 12:30:00,
2013-07-17 07:45:00,0.0,0.0,30.04,North,0,0.0,0.0,0,0.00,,,0.00,0.00,VWS V14.00,2013-07-17 12:45:00,
2013-07-17 08:00:00,0.0,0.0,30.04,North,0,0.0,0.0,0,0.00,,,0.00,0.00,VWS V14.00,2013-07-17 13:00:00,
2013-07-17 08:15:00,0.0,0.0,30.04,North,0,0.0,0.0,0,0.00,,,0.00,0.00,VWS V14.00,2013-07-17 13:15:00,
2013-07-17 08:30:00,0.0,0.0,30.05,North,0,0.0,0.0,0,0.00,,,0.00,0.00,VWS V14.00,2013-07-17 13:30:00,
2013-07-17 08:45:00,0.0,0.0,30.06,North,0,0.0,0.0,0,0.00,,,0.00,0.00,VWS V14.00,2013-07-17 13:45:00,
2013-07-17 09:00:00,83.5,76.7,30.06,East,90,2.0,7.0,80,0.00,,,0.00,455.00,VWS V14.00,2013-07-17 14:00:00,
2013-07-17 09:15:00,84.8,77.2,30.06,NE,55,5.0,6.0,78,0.00,,,0.00,461.00,VWS V14.00,2013-07-17 14:15:00,
2013-07-17 09:30:00,85.0,76.6,30.06,NE,45,2.0,6.0,76,0.00,,,0.00,316.00,VWS V14.00,2013-07-17 14:30:00,
2013-07-17 09:45:00,84.0,76.4,30.06,ENE,68,2.0,6.0,78,0.00,,,0.00,144.00,VWS V14.00,2013-07-17 14:45:00,
2013-07-17 10:00:00,81.4,76.1,30.07,East,90,4.0,12.0,84,0.47,,,0.03,65.00,VWS V14.00,2013-07-17 15:00:00,
2013-07-17 10:15:00,78.7,75.2,30.07,ENE,68,3.0,11.0,89,0.04,,,0.03,127.00,VWS V14.00,2013-07-17 15:15:00,
2013-07-17 10:30:00,78.5,75.3,30.07,NE,45,2.0,6.0,90,0.00,,,0.03,171.00,VWS V14.00,2013-07-17 15:30:00,
2013-07-17 10:45:00,78.7,75.5,30.08,NE,45,2.0,6.0,90,0.00,,,0.03,284.00,VWS V14.00,2013-07-17 15:45:00,
2013-07-17 11:00:00,79.7,76.2,30.07,NE,45,3.0,7.0,89,0.00,,,0.03,369.00,VWS V14.00,2013-07-17 16:00:00,
2013-07-17 11:15:00,81.1,77.9,30.07,ESE,112,3.0,10.0,90,0.00,,,0.03,486.00,VWS V14.00,2013-07-17 16:15:00,
2013-07-17 11:30:00,80.8,74.4,30.08,East,90,3.0,9.0,81,0.00,,,0.03,514.00,VWS V14.00,2013-07-17 16:30:00,
2013-07-17 11:45:00,82.7,75.5,30.08,East,90,3.0,7.0,79,0.00,,,0.03,668.00,VWS V14.00,2013-07-17 16:45:00,
2013-07-17 12:00:00,84.1,75.3,30.08,ESE,112,3.0,9.0,75,0.00,,,0.03,775.00,VWS V14.00,2013-07-17 17:00:00,
2013-07-17 12:15:00,84.1,74.5,30.08,East,90,2.0,10.0,73,0.00,,,0.03,428.00,VWS V14.00,2013-07-17 17:15:00,
2013-07-17 12:30:00,82.3,74.8,30.08,NE,45,3.0,10.0,78,0.00,,,0.03,333.00,VWS V14.00,2013-07-17 17:30:00,
2013-07-17 12:45:00,81.6,75.2,30.08,NE,45,2.0,9.0,81,0.00,,,0.03,308.00,VWS V14.00,2013-07-17 17:45:00,
2013-07-17 13:00:00,81.1,75.1,30.08,ENE,68,3.0,7.0,82,0.00,,,0.03,204.00,VWS V14.00,2013-07-17 18:00:00,
2013-07-17 13:15:00,78.2,74.0,30.09,NE,45,3.0,9.0,87,0.55,,,0.10,114.00,VWS V14.00,2013-07-17 18:15:00,
2013-07-17 13:30:00,77.1,73.9,30.09,NE,45,0.0,4.0,90,0.58,,,0.23,54.00,VWS V14.00,2013-07-17 18:30:00,
2013-07-17 13:45:00,75.7,72.9,30.08,SW,225,1.0,5.0,91,0.49,,,0.33,45.00,VWS V14.00,2013-07-17 18:45:00,
2013-07-17 14:00:00,75.2,72.7,30.09,SSW,202,1.0,7.0,92,0.31,,,0.35,54.00,VWS V14.00,2013-07-17 19:00:00,
2013-07-17 14:15:00,75.2,73.0,30.08,WSW,248,0.0,5.0,93,0.14,,,0.37,54.00,VWS V14.00,2013-07-17 19:15:00,
2013-07-17 14:30:00,75.1,72.9,30.08,West,270,0.0,4.0,93,0.14,,,0.39,40.00,VWS V14.00,2013-07-17 19:30:00,
2013-07-17 14:45:00,75.3,73.5,30.08,WNW,292,0.0,4.0,94,0.13,,,0.41,64.00,VWS V14.00,2013-07-17 19:45:00,
2013-07-17 15:00:00,75.5,73.7,30.09,WNW,292,0.0,4.0,94,0.04,,,0.41,59.00,VWS V14.00,2013-07-17 20:00:00,
2013-07-17 15:15:00,75.6,73.8,30.08,WNW,292,0.0,3.0,94,0.04,,,0.42,57.00,VWS V14.00,2013-07-17 20:15:00,
2013-07-17 15:30:00,75.7,73.8,30.08,WNW,292,0.0,2.0,94,0.05,,,0.43,83.00,VWS V14.00,2013-07-17 20:30:00,
2013-07-17 15:45:00,76.0,74.2,30.08,WNW,292,0.0,2.0,94,0.24,,,0.47,101.00,VWS V14.00,2013-07-17 20:45:00,
2013-07-17 16:00:00,76.3,74.4,30.07,WNW,292,0.0,0.0,94,0.00,,,0.47,140.00,VWS V14.00,2013-07-17 21:00:00,
2013-07-17 16:15:00,76.7,74.8,30.05,WNW,292,0.0,2.0,94,0.00,,,0.47,170.00,VWS V14.00,2013-07-17 21:15:00,
2013-07-17 16:30:00,76.9,75.1,30.05,WNW,292,0.0,3.0,94,0.00,,,0.47,208.00,VWS V14.00,2013-07-17 21:30:00,
2013-07-17 16:45:00,77.0,74.8,30.05,WNW,292,0.0,1.0,93,0.00,,,0.47,203.00,VWS V14.00,2013-07-17 21:45:00,
2013-07-17 17:00:00,77.6,75.4,30.04,WNW,292,0.0,0.0,93,0.00,,,0.47,174.00,VWS V14.00,2013-07-17 22:00:00,
2013-07-17 17:15:00,77.4,74.9,30.04,WNW,292,0.0,3.0,92,0.00,,,0.47,193.00,VWS V14.00,2013-07-17 22:15:00,
2013-07-17 17:30:00,78.0,75.5,30.05,WNW,292,0.0,2.0,92,0.00,,,0.47,198.00,VWS V14.00,2013-07-17 22:30:00,
2013-07-17 17:45:00,78.4,75.9,30.04,WNW,292,0.0,2.0,92,0.00,,,0.47,209.00,VWS V14.00,2013-07-17 22:45:00,
2013-07-17 18:00:00,78.7,75.9,30.04,WNW,292,0.0,1.0,91,0.00,,,0.47,214.00,VWS V14.00,2013-07-17 23:00:00,
2013-07-17 18:15:00,79.1,76.2,30.04,WNW,292,0.0,2.0,91,0.00,,,0.47,189.00,VWS V14.00,2013-07-17 23:15:00,
2013-07-17 18:30:00,79.3,76.1,30.03,WNW,292,0.0,2.0,90,0.00,,,0.47,161.00,VWS V14.00,2013-07-17 23:30:00,
2013-07-17 18:45:00,79.6,76.4,30.04,WNW,292,0.0,2.0,90,0.00,,,0.47,132.00,VWS V14.00,2013-07-17 23:45:00,
2013-07-17 19:00:00,80.2,77.0,30.03,East,90,0.0,4.0,90,0.00,,,0.47,101.00,VWS V14.00,2013-07-18 00:00:00,
2013-07-17 19:15:00,80.6,77.4,30.03,ENE,68,1.0,3.0,90,0.00,,,0.47,86.00,VWS V14.00,2013-07-18 00:15:00,
2013-07-17 19:30:00,80.9,77.4,30.03,East,90,1.0,5.0,89,0.00,,,0.47,66.00,VWS V14.00,2013-07-18 00:30:00,
2013-07-17 19:45:00,81.2,77.0,30.02,ENE,68,0.0,6.0,87,0.00,,,0.47,36.00,VWS V14.00,2013-07-18 00:45:00,
2013-07-17 20:00:00,81.0,76.4,30.03,East,90,1.0,6.0,86,0.00,,,0.47,21.00,VWS V14.00,2013-07-18 01:00:00,
2013-07-17 20:15:00,80.9,76.7,30.04,East,90,1.0,5.0,87,0.00,,,0.47,12.00,VWS V14.00,2013-07-18 01:15:00,
2013-07-17 20:30:00,80.6,76.4,30.03,East,90,0.0,3.0,87,0.00,,,0.47,1.00,VWS V14.00,2013-07-18 01:30:00,
2013-07-17 20:45:00,80.2,76.3,30.03,NNE,22,0.0,3.0,88,0.00,,,0.47,0.00,VWS V14.00,2013-07-18 01:45:00,
2013-07-17 21:00:00,79.9,76.4,30.04,NNE,22,0.0,3.0,89,0.00,,,0.47,0.00,VWS V14.00,2013-07-18 02:00:00,
2013-07-17 21:15:00,79.4,75.9,30.04,NE,45,1.0,6.0,89,0.00,,,0.47,0.00,VWS V14.00,2013-07-18 02:15:00,
2013-07-17 21:30:00,79.0,75.5,30.04,East,90,1.0,4.0,89,0.00,,,0.47,0.00,VWS V14.00,2013-07-18 02:30:00,
2013-07-17 21:45:00,78.7,75.2,30.04,East,90,0.0,1.0,89,0.00,,,0.47,0.00,VWS V14.00,2013-07-18 02:45:00,
2013-07-17 22:00:00,78.3,74.8,30.04,East,90,0.0,1.0,89,0.00,,,0.47,0.00,VWS V14.00,2013-07-18 03:00:00,
2013-07-17 22:15:00,77.9,74.4,30.05,ENE,68,1.0,5.0,89,0.00,,,0.47,0.00,VWS V14.00,2013-07-18 03:15:00,
2013-07-17 22:30:00,77.7,74.2,30.05,NE,45,1.0,3.0,89,0.00,,,0.47,0.00,VWS V14.00,2013-07-18 03:30:00,
2013-07-17 22:45:00,77.5,74.0,30.05,NE,45,1.0,5.0,89,0.00,,,0.47,0.00,VWS V14.00,2013-07-18 03:45:00,
2013-07-17 23:00:00,77.5,74.3,30.06,NE,45,0.0,4.0,90,0.00,,,0.47,0.00,VWS V14.00,2013-07-18 04:00:00,
2013-07-17 23:15:00,77.5,74.3,30.06,NE,45,1.0,5.0,90,0.00,,,0.47,0.00,VWS V14.00,2013-07-18 04:15:00,
2013-07-17 23:30:00,77.6,74.4,30.06,NE,45,1.0,4.0,90,0.00,,,0.47,0.00,VWS V14.00,2013-07-18 04:30:00,
2013-07-17 23:45:00,77.3,73.8,30.06,NNE,22,0.0,3.0,89,0.00,,,0.47,0.00,VWS V14.00,2013-07-18 04:45:00,